Nantucket, Massachusetts, United States (02554)
Lat: 41.28N, Lon: 70.1W
Wx Zone: MAZ024
Local Info
Past Weather Observations for Today

NOTE: This archive is for the closest National Weather Service station to Nantucket. Information may differ from the station used for current weather conditions.

Click here for Long-term Archive

Time Weather Temperature Dewpoint Humidity Pressure Winds Precip Visibility
14:53
Overcast
70°F / 21°C 64°F / 18°C 83% 30.01 in
(1016 mb)
SSE 12.7 mph
(SSE 20 kph)
0.00 in
(0.00 mm)
10SM
13:53
Mostly Cloudy
Rain
66°F / 19°C 64°F / 18°C 94% 30.04 in
(1017 mb)
SSE 8.1 mph
(SSE 13 kph)
0.05 in
(1.27 mm)
6SM
12:53
Mostly Cloudy
72°F / 22°C 64°F / 18°C 78% 30.04 in
(1017 mb)
SSE 11.5 mph
(SSE 19 kph)
- 10SM
11:53
Partly Cloudy
73°F / 23°C 66°F / 19°C 78% 30.06 in
(1018 mb)
S 12.7 mph
(S 20 kph)
- 10SM
10:53
Partly Cloudy
72°F / 22°C 64°F / 18°C 78% 30.06 in
(1018 mb)
S 12.7 mph
(S 20 kph)
- 10SM
09:53
Clear
72°F / 22°C 63°F / 17°C 73% 30.06 in
(1018 mb)
S 11.5 mph
(S 19 kph)
- 10SM
08:53
Clear
70°F / 21°C 64°F / 18°C 83% 30.06 in
(1018 mb)
S 11.5 mph
(S 19 kph)
- 10SM
07:53
Clear
70°F / 21°C 64°F / 18°C 83% 30.06 in
(1018 mb)
SSE 11.5 mph
(SSE 19 kph)
- 10SM
06:53
Clear
66°F / 19°C 64°F / 18°C 94% 30.06 in
(1018 mb)
SSE 10.4 mph
(SSE 17 kph)
- 10SM
05:53
Clear
66°F / 19°C 64°F / 18°C 94% 30.06 in
(1018 mb)
SW 9.2 mph
(SW 15 kph)
- 8SM
04:53
Clear
64°F / 18°C 63°F / 17°C 94% 30.06 in
(1018 mb)
SW 6.9 mph
(SW 11 kph)
- 8SM
03:53
Clear
64°F / 18°C 63°F / 17°C 94% 30.06 in
(1018 mb)
SW 5.8 mph
(SW 9 kph)
- 8SM
02:53
Partly Cloudy
Fog And Mist
64°F / 18°C 63°F / 17°C 94% 30.06 in
(1018 mb)
SW 9.2 mph
(SW 15 kph)
- 6SM
02:28
Mostly Cloudy
Fog And Mist
64°F / 18°C 63°F / 17°C 94% 30.06 in
(1018 mb)
SW 8.1 mph
(SW 13 kph)
- 4SM
02:12
Partly Cloudy
Fog And Mist
64°F / 18°C 63°F / 17°C 94% 30.06 in
(1018 mb)
SSE 9.2 mph
(SSE 15 kph)
- 5SM
01:53
Clear
Fog And Mist
64°F / 18°C 63°F / 17°C 94% 30.06 in
(1018 mb)
SSE 6.9 mph
(SSE 11 kph)
- 5SM
01:38
Partly Cloudy
Fog And Mist
63°F / 17°C 63°F / 17°C 100% 30.06 in
(1018 mb)
SSE 5.8 mph
(SSE 9 kph)
- 4SM
01:30
Partly Cloudy
Fog And Mist
63°F / 17°C 63°F / 17°C 100% 30.06 in
(1018 mb)
SSE 6.9 mph
(SSE 11 kph)
- 2SM
01:27
Obscured
Fog And Mist
63°F / 17°C 63°F / 17°C 100% 30.06 in
(1018 mb)
SSE 6.9 mph
(SSE 11 kph)
- 1SM
01:17
Obscured
Fog
61°F / 16°C 61°F / 16°C 100% 30.06 in
(1018 mb)
SSE 5.8 mph
(SSE 9 kph)
- 1/4SM
01:06
Obscured
Fog
63°F / 17°C 61°F / 16°C 94% 30.06 in
(1018 mb)
SSE 3.5 mph
(SSE 6 kph)
- 1/2SM
00:53
Obscured
Fog
63°F / 17°C 61°F / 16°C 94% 30.06 in
(1018 mb)
S 4.6 mph
(S 7 kph)
- 1/4SM
00:44
Obscured
Fog And Mist
63°F / 17°C 63°F / 17°C 100% 30.06 in
(1018 mb)
S 3.5 mph
(S 6 kph)
- 3/4SM
00:40
Partly Cloudy
Fog And Mist
63°F / 17°C 63°F / 17°C 100% 30.06 in
(1018 mb)
S 3.5 mph
(S 6 kph)
- 1 3/4SM
00:15
Partly Cloudy
Fog And Mist
63°F / 17°C 63°F / 17°C 100% 30.06 in
(1018 mb)
S 4.6 mph
(S 7 kph)
- 4SM
Time Weather Temperature Dewpoint Humidity Pressure Winds Precip Visibility


Weather for websites

WeatherForYou.com, LLC is not responsible for any damages or problems caused by this service. Current weather conditions are obtained from the closest station including government and personal stations which may have varying degrees of accuracy. Weather forecasts are derived from the NOAA NDFD. Like all things, this site belongs to Jesus Christ... He just trusts us to maintain it. If you have any questions or comments email webmaster@weatherforyou.com

Copyright © 2016, WeatherForYou.com LLC. All rights reserved.